This is the latest recevied weather packets stored in our database for station/object ED3YAB-7. If no packets are shown the sender has not sent any weather packets the latest 10 day(s).
| Time | Temp. | Humidity | Pressure | Rain* | Wind** | Luminosity | Snow |
|---|---|---|---|---|---|---|---|
| 1777931715 | 11.67° C | 72% | 1017.3 hPa | - | - | - | - |
| 1777930515 | 12.22° C | 73% | 1017.3 hPa | - | - | - | - |
| 1777928251 | 12.22° C | 72% | 1017.5 hPa | - | - | - | - |
| 1777927059 | 13.33° C | 70% | 1017.3 hPa | - | - | - | - |
| 1777927051 | 13.33° C | 70% | 1017.3 hPa | - | - | - | - |
| 1777925859 | 12.78° C | 71% | 1017.6 hPa | - | - | - | - |
| 1777925851 | 12.78° C | 71% | 1017.6 hPa | - | - | - | - |
| 1777924658 | 12.22° C | 74% | 1017.6 hPa | - | - | - | - |
| 1777924651 | 12.22° C | 74% | 1017.6 hPa | - | - | - | - |
| 1777923643 | 12.78° C | 68% | 1017.6 hPa | - | - | - | - |
| 1777923458 | 12.78° C | 68% | 1017.6 hPa | - | - | - | - |
| 1777923451 | 12.78° C | 68% | 1017.6 hPa | - | - | - | - |
| 1777922258 | 15° C | 60% | 1016.8 hPa | - | - | - | - |
| 1777922251 | 15° C | 60% | 1016.8 hPa | - | - | - | - |
| 1777921051 | 16.11° C | 61% | 1016.7 hPa | - | - | - | - |
| 1777919858 | 16.67° C | 59% | 1016.2 hPa | - | - | - | - |
| 1777919850 | 16.67° C | 59% | 1016.2 hPa | - | - | - | - |
| 1777918658 | 16.67° C | 57% | 1016.1 hPa | - | - | - | - |
| 1777918650 | 16.67° C | 57% | 1016.1 hPa | - | - | - | - |
| 1777917460 | 17.78° C | 55% | 1015.6 hPa | - | - | - | - |
| 1777917450 | 17.78° C | 55% | 1015.6 hPa | - | - | - | - |
| 1777916250 | 18.33° C | 54% | 1015.5 hPa | - | - | - | - |
| 1777915059 | 18.33° C | 52% | 1015.8 hPa | - | - | - | - |
| 1777915051 | 18.33° C | 52% | 1015.8 hPa | - | - | - | - |
| 1777913859 | 18.89° C | 51% | 1015.9 hPa | - | - | - | - |
* Rain since midnight (hover to see other rain measurements)
** Current wind speed in m/s (hover to see current wind gust speed)